Change the Weather History Date:

Sunday, December 9, 2012

  Actual Average Record
Temperature  
Mean Temperature 40 °F -  
Max Temperature 48 °F 34 °F 48 °F (2012)
Min Temperature 28 °F 17 °F 5 °F (2002)
Degree Days  
Heating Degree Days 25    
Moisture  
Dew Point 36 °F    
Average Humidity 80    
Maximum Humidity 100    
Minimum Humidity 57    
Precipitation  
Precipitation 0.01 in 0.15 in - ()
Sea Level Pressure  
Sea Level Pressure 30.05 in    
Wind  
Wind Speed 8 mph ()    
Max Wind Speed 20 mph    
Max Gust Speed 29 mph    
Visibility 10.8 miles    
Events Rain    
Averages and records for this station are not official NWS values.
T = Trace of Precipitation, MM = Missing Value Source: Averaged Metar Reports

Daily Weather History Graph

Daily Weather History Graph

Search for Another Location

Airport or City:

Trip Planner

Search our weather history database for the weather conditions in past years. The results will help you decide how hot, cold, wet, or windy it might be!

Date:

Astronomy

Dec. 09, 2012 Rise Set
Actual Time 7:46 AM AST 4:38 PM AST
Civil Twilight 7:12 AM AST 5:11 PM AST
Nautical Twilight 6:35 AM AST 5:48 PM AST
Astronomical Twilight 6:00 AM AST 6:24 PM AST
Moon 3:05 AM AST (12/9) 1:49 PM AST (12/9)
Length of Visible Light 9h 58m
Length of Day
8h 51m
Waning Crescent, 19% of the Moon is Illuminated
Dec 9
Waning Crescent
Dec 13
New
Dec 20
First Quarter
Dec 28
Full
Jan 4
Last Quarter

Hourly Weather History & Observations

Time (AST) Temp. Windchill Dew Point Humidity Pressure Visibility Wind Dir Wind Speed Gust Speed Precip Events Conditions
12:00 AM 42.8 °F - 42.8 °F 100% 29.79 in 3.0 mi NNE 2.3 mph - N/A   Overcast
12:50 AM - - - N/A% - 1.0 mi Calm Calm - N/A   Light Drizzle
1:00 AM 44.6 °F - 44.6 °F 100% 29.79 in 0.8 mi Calm Calm - N/A   Light Drizzle
1:14 AM - - - N/A% - 0.6 mi Calm Calm - N/A   Light Drizzle
2:00 AM 45 °F - 45 °F 100% 29.80 in 1 mi SW 3.5 mph - - Rain Light Drizzle
2:00 AM 44.6 °F 43.1 °F 44.6 °F 100% 29.80 in 0.6 mi WSW 3.5 mph - N/A   Light Drizzle
2:42 AM - - - N/A% - 3.0 mi WSW 10.4 mph - N/A   Light Drizzle
3:00 AM 48.2 °F - 46.4 °F 93% 29.83 in 5.0 mi SW 11.5 mph - N/A   Light Drizzle
3:27 AM - - - N/A% - 5.0 mi SW 10.4 mph - N/A   Light Drizzle
4:00 AM 46.4 °F 41.9 °F 46.4 °F 100% 29.84 in 3.0 mi WSW 9.2 mph - N/A   Light Drizzle
5:00 AM 46.4 °F 39.8 °F 44.6 °F 93% 29.86 in 8.0 mi WSW 16.1 mph 21.9 mph N/A   Light Drizzle
6:00 AM 46.4 °F 40.4 °F 44.6 °F 93% 29.88 in 10.0 mi WSW 13.8 mph 20.7 mph N/A   Light Drizzle
6:07 AM - - - N/A% - 10.0 mi West 17.3 mph 23.0 mph N/A   Overcast
7:00 AM 42.8 °F 35.1 °F 42.8 °F 100% 29.94 in 15.0 mi West 16.1 mph - N/A   Mostly Cloudy
7:20 AM - - - N/A% - 15.0 mi West 15.0 mph 21.9 mph N/A   Scattered Clouds
8:00 AM 43 °F - 39 °F 80% 29.96 in 15 mi West 16.1 mph - -   Partly Cloudy
8:00 AM 42.8 °F 34.8 °F 39.2 °F 87% 29.95 in 15.0 mi West 17.3 mph - N/A   Mostly Cloudy
9:00 AM 42.8 °F 35.1 °F 37.4 °F 81% 29.99 in 15.0 mi West 16.1 mph 24.2 mph N/A   Mostly Cloudy
10:00 AM 42.8 °F 34.3 °F 37.4 °F 81% 30.03 in 15.0 mi West 19.6 mph 28.8 mph N/A   Mostly Cloudy
11:00 AM 41.0 °F 32.2 °F 33.8 °F 76% 30.07 in 15.0 mi West 18.4 mph 25.3 mph N/A   Mostly Cloudy
12:00 PM 41.0 °F 33.5 °F 32.0 °F 70% 30.08 in 15.0 mi WNW 13.8 mph 19.6 mph N/A   Mostly Cloudy
1:00 PM 41.0 °F 33.1 °F 32.0 °F 70% 30.11 in 15.0 mi WNW 15.0 mph 21.9 mph N/A   Mostly Cloudy
2:00 PM 42 °F - 32 °F 57% 30.12 in 15 mi WNW 15.0 mph - -   Partly Cloudy
2:00 PM 42.8 °F 35.4 °F 32.0 °F 66% 30.12 in 15.0 mi WNW 15.0 mph 23.0 mph N/A   Scattered Clouds
3:00 PM 41.0 °F 33.5 °F 30.2 °F 65% 30.13 in 15.0 mi WNW 13.8 mph - N/A   Mostly Cloudy
4:00 PM 41.0 °F 34.7 °F 30.2 °F 65% 30.16 in 15.0 mi West 10.4 mph - N/A   Mostly Cloudy
5:00 PM 39.2 °F 35.0 °F 28.4 °F 65% 30.20 in 15.0 mi West 5.8 mph - N/A   Mostly Cloudy
6:00 PM 37.4 °F 33.8 °F 28.4 °F 70% 30.22 in 15.0 mi West 4.6 mph - N/A   Scattered Clouds
7:00 PM 39.2 °F 33.6 °F 30.2 °F 70% 30.27 in 15.0 mi WNW 8.1 mph - N/A   Partly Cloudy
8:00 PM 36 °F - 26 °F 57% 30.30 in 15 mi NW 6.9 mph - -   Clear
8:00 PM 37.4 °F 32.1 °F 26.6 °F 65% 30.30 in 15.0 mi NW 6.9 mph - N/A   Partly Cloudy
9:00 PM 33.8 °F 27.0 °F 26.6 °F 75% 30.31 in 15.0 mi WNW 8.1 mph - N/A   Clear
10:00 PM 32.0 °F 27.5 °F 26.6 °F 80% 30.32 in 15.0 mi SSW 4.6 mph - N/A   Clear
11:00 PM 28.4 °F 24.6 °F 24.8 °F 86% 30.32 in 15.0 mi West 3.5 mph - N/A   Clear